Weather History for KTAN - October, 2013

Change the Weather History Date:

Tuesday, October 8, 2013

  Actual Average Record
Temperature  
Mean Temperature 56 °F -  
Max Temperature 69 °F 64 °F 81 °F (1990)
Min Temperature 42 °F 41 °F 22 °F (1954)
Degree Days  
Heating Degree Days 9    
Growing Degree Days 6 (Base 50)    
Moisture  
Dew Point 45 °F    
Average Humidity 66    
Maximum Humidity 96    
Minimum Humidity 36    
Precipitation  
Precipitation 0.00 in - - ()
Sea Level Pressure  
Sea Level Pressure 30.16 in    
Wind  
Wind Speed 5 mph (NW)    
Max Wind Speed 10 mph    
Max Gust Speed 16 mph    
Visibility 10 miles    
Events      
Averages and records for this station are not official NWS values.
T = Trace of Precipitation, MM = Missing Value Source: NWS Daily Summary

Daily Weather History Graph

Daily Weather History Graph

Search for Another Location

Airport or City:

Trip Planner

Search our weather history database for the weather conditions in past years. The results will help you decide how hot, cold, wet, or windy it might be!

Date:

Astronomy

Oct. 08, 2013 Rise Set
Actual Time 6:48 AM EDT 6:13 PM EDT
Civil Twilight 6:20 AM EDT 6:41 PM EDT
Nautical Twilight 5:48 AM EDT 7:13 PM EDT
Astronomical Twilight 5:16 AM EDT 7:45 PM EDT
Moon 10:43 AM EDT (10/8) 8:43 PM EDT (10/8)
Length of Visible Light 12h 20m
Length of Day
11h 24m
Waxing Crescent, 16% of the Moon is Illuminated
Oct 8
Waxing Crescent
Oct 11
First Quarter
Oct 18
Full
Oct 26
Last Quarter
Nov 3
New

Hourly Weather History & Observations

Time (EDT) Temp. Dew Point Humidity Pressure Visibility Wind Dir Wind Speed Gust Speed Precip Events Conditions
12:27 AM 64.0 °F 55.0 °F 73% 29.91 in 10.0 mi NW 6.9 mph - 0.00 in   Overcast
12:52 AM 63.0 °F 53.1 °F 70% 29.93 in 10.0 mi WNW 6.9 mph - 0.00 in   Overcast
1:52 AM 63.0 °F 48.9 °F 60% 29.95 in 10.0 mi NW 9.2 mph - N/A   Overcast
2:52 AM 61.0 °F 46.9 °F 60% 29.98 in 10.0 mi WNW 6.9 mph - N/A   Mostly Cloudy
3:52 AM 57.9 °F 48.0 °F 70% 30.00 in 10.0 mi WNW 3.5 mph - N/A   Clear
4:52 AM 52.0 °F 48.0 °F 86% 30.02 in 10.0 mi Calm Calm - N/A   Clear
5:52 AM 53.1 °F 48.0 °F 83% 30.05 in 10.0 mi West 5.8 mph - N/A   Clear
6:52 AM 53.1 °F 46.9 °F 80% 30.09 in 10.0 mi WNW 5.8 mph - N/A   Clear
7:52 AM 55.0 °F 46.9 °F 74% 30.12 in 10.0 mi NW 3.5 mph - N/A   Clear
8:52 AM 57.9 °F 46.0 °F 65% 30.16 in 10.0 mi WNW 4.6 mph - N/A   Clear
9:52 AM 62.1 °F 45.0 °F 53% 30.17 in 10.0 mi NW 10.4 mph 16.1 mph N/A   Clear
10:52 AM 64.0 °F 45.0 °F 50% 30.18 in 10.0 mi Variable 6.9 mph - N/A   Clear
11:52 AM 66.0 °F 42.1 °F 42% 30.19 in 10.0 mi NW 8.1 mph - N/A   Clear
12:52 PM 68.0 °F 44.1 °F 42% 30.19 in 10.0 mi NW 9.2 mph - N/A   Clear
1:52 PM 69.1 °F 43.0 °F 39% 30.18 in 10.0 mi NW 9.2 mph - N/A   Clear
2:52 PM 69.1 °F 41.0 °F 36% 30.20 in 10.0 mi Variable 4.6 mph - N/A   Clear
3:52 PM 68.0 °F 39.9 °F 36% 30.22 in 10.0 mi Variable 6.9 mph - N/A   Clear
4:52 PM 66.9 °F 39.9 °F 37% 30.23 in 10.0 mi NNW 3.5 mph - N/A   Clear
5:52 PM 61.0 °F 41.0 °F 48% 30.26 in 10.0 mi Calm Calm - N/A   Clear
6:52 PM 50.0 °F 45.0 °F 83% 30.27 in 10.0 mi Calm Calm - N/A   Clear
7:52 PM 48.0 °F 45.0 °F 89% 30.30 in 10.0 mi Calm Calm - N/A   Clear
8:52 PM 46.0 °F 44.1 °F 93% 30.32 in 10.0 mi Calm Calm - N/A   Clear
9:52 PM 44.1 °F 42.1 °F 93% 30.33 in 9.0 mi Calm Calm - N/A   Clear
10:52 PM 43.0 °F 41.0 °F 93% 30.35 in 7.0 mi Calm Calm - N/A   Clear
11:52 PM 42.1 °F 41.0 °F 96% 30.35 in 5.0 mi Calm Calm - N/A   Clear